{"data":{"norad_id":59025,"intl_designator":"2024-038C","name":"STARLINK-31178","alt_names":[],"object_type":"PAYLOAD","status":"ACTIVE","operator":null,"country":"US","launch_date":"2024-02-25","launch_site_code":"AFETR","launch_vehicle":null,"mission":null,"orbit_class":"UNKNOWN","rcs_meters":null,"size_class":null,"mass_kg":null,"dimensions":null,"purposes":["comms"],"wikipedia_slug":null,"has_3d_model":false,"image_url":null,"decayed_at":null,"tle_current":{"epoch":"2026-05-25T04:12:03.291840Z","epoch_age_seconds":56536,"freshness":"FRESH","line1":"1 59025U 24038C   26145.17503810  .00000376  00000+0  23168-4 0  9990","line2":"2 59025  43.0040 315.2391 0000589 281.6943  78.3843 15.27580195126345","mean_motion":15.27580195,"eccentricity":5.89e-5,"inclination_deg":43.004,"raan_deg":315.2391,"arg_perigee_deg":281.6943,"mean_anomaly_deg":78.3843,"bstar":2.3168e-5,"rev_number":12634,"period_min":94.26673668023,"perigee_km":482.6443883129,"apogee_km":483.45263596623,"semimajor_km":6861.1855121396,"source":"CELESTRAK","updated_at":"2026-05-25T13:38:18.822501Z"}}}